Flag for Switzerland Weather past 2 weeks in Schlieren, Zurich, Switzerland

Now
60 °F

Cool.


Feels Like: 61 °F
Forecast: 56 / 70 °F
Wind: 3 mph from Southwest

Location: Zurich Town / Ville.

Current Time: May 3, 2015 at 3:53:31 PM

Latest Report: May 3, 2015 at 3:00 PM


Visibility: N/A

Pressure: 29.80 "Hg

Humidity: 96%

Dew point: 59 °F

Location of SchlierenLocation

Historic Weather in Schlieren — Graph

°F

Schlieren temperature yesterday

Maximum temperature yesterday: 61 °F (at 3:00 PM)
Minimum temperature yesterday: 51 °F (at 11:00 PM)
Average temperature yesterday: 54 °F

Past Weeks' High & Low Weather Summary

 TemperatureHumidityPressure
High72 °F (Apr 22, 4:00 PM)99% (May 1, 11:00 AM)30.36 "Hg (May 1, 11:00 AM)
Low36 °F (Apr 19, 7:00 AM)19% (Apr 22, 7:00 PM)29.41 "Hg (Apr 27, 6:00 PM)
Average53 °F66%29.98 "Hg
* Reported Apr 18 2:00 PM — May 3 2:00 PM, Schlieren, Weather by CustomWeather, © 2015

Note: Actual official high and low records may vary slightly from our data, if they occured in-between our weather recording intervals... More about our weather records

Advertising

Schlieren weather history for previous 24 hours

 ConditionsComfort  
Time TempWeatherWind HumidityBarometerVisibility
2:00 PM
Sun, May 3
59 °FCool.3 mph95%29.82 "HgN/A
1:00 PM58 °FCool.3 mph97%29.82 "HgN/A
12:00 PM57 °FCool.2 mph96%29.81 "HgN/A
11:00 AM56 °FCool.2 mph98%29.82 "HgN/A
10:00 AM55 °FCool.3 mph97%29.81 "HgN/A
9:00 AM54 °FCool.7 mph97%29.81 "HgN/A
8:00 AM54 °FCool.5 mph96%29.81 "HgN/A
7:00 AM53 °FCool.2 mph96%29.81 "HgN/A
6:00 AM52 °FCool.1 mph96%29.80 "HgN/A
5:00 AM52 °FCool.2 mph97%29.80 "HgN/A
4:00 AM52 °FCool.5 mph97%29.81 "HgN/A
3:00 AM51 °FCool.1 mph97%29.81 "HgN/A
2:00 AM51 °FCool.2 mph98%29.83 "HgN/A
1:00 AM51 °FCool.2 mph97%29.85 "HgN/A
12:00 AM51 °FCool.2 mph97%29.86 "HgN/A
11:00 PM
Sat, May 2
51 °FCool.3 mph95%29.88 "HgN/A
10:00 PM52 °FCool.1 mph95%29.89 "HgN/A
9:00 PM53 °FCool.2 mph96%29.88 "HgN/A
8:00 PM53 °FCool.5 mph94%29.90 "HgN/A
7:00 PM56 °FCool.2 mph84%29.86 "HgN/A
6:00 PM58 °FCool.3 mph76%29.86 "HgN/A
5:00 PM59 °FCool.2 mph77%29.85 "HgN/A
4:00 PM60 °FCool.5 mph72%29.86 "HgN/A
3:00 PM61 °FCool.2 mph72%29.85 "HgN/A
Weather by CustomWeather, © 2015

See weather overviewHow to use our weather pages